GW1690 Weather Reports


Display with metric or nautical units.
time (UTC)temp
F
wind
direction
speed
MPH
gust
MPH
rain 1hr
in
rain 24hr
in
rain mn
in
humidity
%
barometer
mb
20260905134030 83 197 2.0 2.0 0.00 0.00 0.00 69 1046.1
20260905133529 83 221 1.0 2.0 0.00 0.00 0.00 69 1046.1
20260905133029 83 230 2.0 2.0 0.00 0.00 0.00 70 858.3
20260905132530 83 162 1.0 3.0 0.00 0.00 0.00 71 858.2
20260905132028 82 180 1.0 2.0 0.00 0.00 0.00 71 858.2
20260905131551 82 187 1.0 3.0 0.00 0.00 0.00 72 858.1
20260905131028 82 130 1.0 2.0 0.00 0.00 0.00 72 858.1
20260905130528 82 135 1.0 2.0 0.00 0.00 0.00 73 858.1
20260905130028 81 181 1.0 2.0 0.00 0.00 0.00 73 858.1
20260905125529 81 213 1.0 2.0 0.00 0.00 0.00 73 858.1
20260905125029 81 219 1.0 2.0 0.00 0.00 0.00 73 858.0
20260905124532 81 208 2.0 3.0 0.00 0.00 0.00 74 858.0
20260905124049 81 209 1.0 2.0 0.00 0.00 0.00 74 858.0
20260905123530 81 227 1.0 2.0 0.00 0.00 0.00 74 858.0
20260905123029 81 200 1.0 2.0 0.00 0.00 0.00 74 858.0
20260905122550 81 200 1.0 2.0 0.00 0.00 0.00 74 858.0
20260905122030 81 185 1.0 2.0 0.00 0.00 0.00 74 858.0
20260905121610 81 214 1.0 2.0 0.00 0.00 0.00 74 858.0
20260905121105 81 211 1.0 2.0 0.00 0.00 0.00 74 858.0
20260905120533 80 212 1.0 2.0 0.00 0.00 0.00 74 858.0
20260905120030 80 214 1.0 2.0 0.00 0.00 0.00 74 858.0
20260905115532 80 215 1.0 2.0 0.00 0.00 0.00 74 858.0
20260905115031 80 214 1.0 2.0 0.00 0.00 0.00 75 858.0
20260905114530 80 209 1.0 2.0 0.00 0.00 0.00 75 858.0
20260905114031 79 199 1.0 1.0 0.00 0.00 0.00 76 857.9
20260905113550 79 192 1.0 2.0 0.00 0.00 0.00 77 857.9
20260905113030 79 172 1.0 2.0 0.00 0.00 0.00 78 857.9
20260905112531 79 192 1.0 1.0 0.00 0.00 0.00 80 857.9
20260905112030 79 208 1.0 1.0 0.00 0.00 0.00 80 857.9
20260905111531 79 204 1.0 1.0 0.00 0.00 0.00 80 857.9
20260905111032 79 200 1.0 1.0 0.00 0.00 0.00 79 857.9
20260905110531 79 232 1.0 2.0 0.00 0.00 0.00 79 857.9
20260905110031 79 230 1.0 2.0 0.00 0.00 0.00 80 857.9
20260905105533 79 225 1.0 2.0 0.00 0.00 0.00 79 857.9
20260905105031 79 216 0.0 1.0 0.00 0.00 0.00 79 857.9
20260905104532 79 214 0.0 1.0 0.00 0.00 0.00 79 857.9
20260905104031 79 214 0.0 1.0 0.00 0.00 0.00 79 857.9
20260905103531 79 219 0.0 1.0 0.00 0.00 0.00 78 857.9
20260905103031 80 210 1.0 1.0 0.00 0.00 0.00 78 857.9
20260905102532 80 212 1.0 1.0 0.00 0.00 0.00 78 857.9
20260905102053 80 211 1.0 1.0 0.00 0.00 0.00 78 857.9
20260905101534 80 211 1.0 1.0 0.00 0.00 0.00 77 857.9
20260905101033 80 215 1.0 1.0 0.00 0.00 0.00 77 857.9
20260905100534 80 212 0.0 2.0 0.00 0.00 0.00 76 858.0
20260905100052 80 222 0.0 2.0 0.00 0.00 0.00 76 902.5
20260905095533 81 221 0.0 2.0 0.00 0.00 0.00 76 1080.4
20260905095035 81 220 0.0 1.0 0.00 0.00 0.00 75 1078.7
20260905094533 81 228 1.0 3.0 0.00 0.00 0.00 75 1077.7
20260905094033 81 232 3.0 3.0 0.00 0.00 0.00 75 1077.8
20260905093534 81 232 2.0 3.0 0.00 0.00 0.00 75 1076.6
20260905093053 81 230 2.0 3.0 0.00 0.00 0.00 75 1076.1
20260905092533 81 232 2.0 3.0 0.00 0.00 0.00 74 1075.8
20260905092034 81 224 1.0 2.0 0.00 0.00 0.00 74 1075.7
20260905091533 81 232 2.0 3.0 0.00 0.00 0.00 74 1076.2
20260905091033 81 233 2.0 3.0 0.00 0.00 0.00 74 1075.7
20260905090535 81 226 1.0 2.0 0.00 0.00 0.00 74 1073.7
20260905090034 81 220 1.0 2.0 0.00 0.00 0.00 74 1073.9
20260905085533 82 212 1.0 1.0 0.00 0.00 0.00 74 1073.5
20260905085053 82 216 1.0 1.0 0.00 0.00 0.00 73 1071.7
20260905084533 81 218 0.0 1.0 0.00 0.00 0.00 73 1071.5
20260905084033 81 215 0.0 1.0 0.00 0.00 0.00 74 1073.9
20260905083534 81 216 0.0 1.0 0.00 0.00 0.00 74 1074.5
20260905083036 81 214 1.0 1.0 0.00 0.00 0.00 75 1077.4
20260905082534 81 215 1.0 1.0 0.00 0.00 0.00 75 1078.2
20260905082049 82 209 1.0 1.0 0.00 0.00 0.00 75 1079.2
20260905081535 82 210 1.0 1.0 0.00 0.00 0.00 75 1077.2
20260905081036 82 212 1.0 1.0 0.00 0.00 0.00 74 1075.7
20260905080533 82 218 0.0 1.0 0.00 0.00 0.00 74 1074.3
20260905080035 82 219 1.0 2.0 0.00 0.00 0.00 73 1070.5
20260905075520 82 220 0.0 1.0 0.00 0.00 0.00 73 1068.3
20260905075035 82 229 2.0 3.0 0.00 0.00 0.00 72 1065.8
20260905074519 82 233 2.0 3.0 0.00 0.00 0.00 72 1066.0
20260905074019 82 240 3.0 3.0 0.00 0.00 0.00 72 1065.8
20260905073536 83 239 3.0 3.0 0.00 0.00 0.00 72 1065.7
20260905073034 83 230 2.0 3.0 0.00 0.00 0.00 72 1064.2
20260905072535 83 219 1.0 2.0 0.00 0.00 0.00 72 1063.3
20260905072034 83 217 1.0 1.0 0.00 0.00 0.00 71 1061.4
20260905071535 83 215 1.0 1.0 0.00 0.00 0.00 71 1061.0
20260905071035 83 217 1.0 2.0 0.00 0.00 0.00 71 1060.5
20260905070555 83 230 2.0 3.0 0.00 0.00 0.00 71 1058.7
20260905070038 83 234 3.0 3.0 0.00 0.00 0.00 71 1058.5
20260905065537 83 233 2.0 3.0 0.00 0.00 0.00 71 1058.1
20260905065055 83 229 2.0 3.0 0.00 0.00 0.00 70 1056.3
20260905064541 83 219 0.0 1.0 0.00 0.00 0.00 70 1055.6
20260905064020 83 217 1.0 2.0 0.00 0.00 0.00 70 1053.3
20260905063521 83 218 0.0 1.0 0.00 0.00 0.00 69 1052.6
20260905063100 83 223 1.0 2.0 0.00 0.00 0.00 70 1053.2
20260905062521 83 227 2.0 2.0 0.00 0.00 0.00 68 1047.7
20260905062021 83 222 1.0 2.0 0.00 0.00 0.00 69 1048.5
20260905061521 83 223 1.0 2.0 0.00 0.00 0.00 69 1049.3
20260905061041 83 212 1.0 2.0 0.00 0.00 0.00 69 1050.0
20260905060523 83 220 0.0 2.0 0.00 0.00 0.00 69 1048.2
20260905060021 83 222 1.0 2.0 0.00 0.00 0.00 68 1046.4
20260905055522 83 220 0.0 1.0 0.00 0.00 0.00 68 1047.4
20260905055042 83 222 1.0 2.0 0.00 0.00 0.00 68 1047.4
20260905054523 84 218 0.0 1.0 0.00 0.00 0.00 68 1045.9
20260905054024 84 217 1.0 2.0 0.00 0.00 0.00 68 1044.9
20260905053522 84 214 1.0 2.0 0.00 0.00 0.00 68 1045.5
20260905053021 84 222 1.0 2.0 0.00 0.00 0.00 67 1042.5
20260905052522 84 223 1.0 2.0 0.00 0.00 0.00 67 1043.3
20260905052022 84 215 1.0 2.0 0.00 0.00 0.00 68 1045.4
20260905051545 84 215 1.0 2.0 0.00 0.00 0.00 68 1045.8
20260905051023 84 230 2.0 2.0 0.00 0.00 0.00 68 1047.0
20260905050522 84 233 2.0 2.0 0.00 0.00 0.00 68 1046.7
20260905050044 84 226 1.0 2.0 0.00 0.00 0.00 68 1044.5
20260905045522 84 220 1.0 2.0 0.00 0.00 0.00 68 1046.2
20260905045021 84 216 0.0 1.0 0.00 0.00 0.00 68 1046.1
20260905044521 84 220 1.0 2.0 0.00 0.00 0.00 68 1048.5
20260905044021 84 228 1.0 2.0 0.00 0.00 0.00 68 1048.2
20260905043522 84 228 1.0 2.0 0.00 0.00 0.00 68 1046.3
20260905043020 84 230 2.0 2.0 0.00 0.00 0.00 68 1047.2
20260905042522 84 221 1.0 2.0 0.00 0.00 0.00 68 1047.0
20260905042022 84 220 0.0 1.0 0.00 0.00 0.00 68 1046.1
20260905041522 84 220 1.0 2.0 0.00 0.00 0.00 68 1048.0
20260905041023 84 223 1.0 2.0 0.00 0.00 0.00 68 1045.8
20260905040522 85 226 1.0 2.0 0.00 0.00 0.00 67 1044.8
20260905040022 85 220 1.0 2.0 0.00 0.00 0.00 67 1043.7
20260905035526 85 222 1.0 2.0 0.00 0.00 0.00 67 1044.4
20260905035023 85 229 1.0 2.0 0.00 0.00 0.00 67 1043.5
20260905034542 85 225 1.0 2.0 0.00 0.00 0.00 66 1039.6
20260905034022 86 213 1.0 2.0 0.00 0.00 0.00 65 1037.5
20260905033522 86 210 1.0 1.0 0.00 0.00 0.00 65 1033.8
20260905033022 86 224 1.0 2.0 0.00 0.00 0.00 64 1031.1
20260905032523 86 219 1.0 2.0 0.00 0.00 0.00 63 1028.5
20260905032023 87 207 1.0 1.0 0.00 0.00 0.00 62 1026.3
20260905031523 87 217 1.0 2.0 0.00 0.00 0.00 61 1022.7
20260905031025 87 228 1.0 2.0 0.00 0.00 0.00 61 1021.6
20260905030522 87 222 1.0 2.0 0.00 0.00 0.00 61 1022.2
20260905030022 87 226 1.0 2.0 0.00 0.00 0.00 60 1020.7
20260905025523 87 236 2.0 2.0 0.00 0.00 0.00 59 1018.9
20260905025024 87 248 2.0 2.0 0.00 0.00 0.00 59 1019.0
20260905024524 88 232 2.0 2.0 0.00 0.00 0.00 60 1019.8
20260905024022 88 232 2.0 2.0 0.00 0.00 0.00 59 1018.9
20260905023521 88 239 2.0 3.0 0.00 0.00 0.00 59 1019.0
20260905023022 88 231 1.0 2.0 0.00 0.00 0.00 59 1019.0
20260905022542 88 233 2.0 2.0 0.00 0.00 0.00 59 1018.7
20260905022023 88 237 2.0 2.0 0.00 0.00 0.00 59 1018.5
20260905021524 88 235 2.0 2.0 0.00 0.00 0.00 59 1017.8
20260905021023 88 236 2.0 2.0 0.00 0.00 0.00 58 1017.7
20260905020519 88 233 1.0 2.0 0.00 0.00 0.00 58 1017.0
20260905020020 89 223 1.0 2.0 0.00 0.00 0.00 58 1017.0
20260905015538 89 239 2.0 2.0 0.00 0.00 0.00 57 1016.2
20260905015023 89 237 2.0 2.0 0.00 0.00 0.00 57 1015.7
20260905014524 89 233 2.0 2.0 0.00 0.00 0.00 57 1016.1
20260905014023 89 229 1.0 2.0 0.00 0.00 0.00 57 1015.9
20260905013545 89 247 2.0 2.0 0.00 0.00 0.00 57 1016.3
20260905013044 90 246 2.0 3.0 0.00 0.00 0.00 57 1015.9
20260905012523 90 239 2.0 2.0 0.00 0.00 0.00 56 1015.1
20260905012023 90 231 1.0 2.0 0.00 0.00 0.00 56 1015.0
20260905011523 90 218 1.0 1.0 0.00 0.00 0.00 55 1014.2
20260905011021 91 227 1.0 2.0 0.00 0.00 0.00 54 1013.8
20260905010521 91 225 1.0 1.0 0.00 0.00 0.00 54 1013.5
20260905010021 91 235 1.0 2.0 0.00 0.00 0.00 53 1013.2
20260905005525 92 226 1.0 1.0 0.00 0.00 0.00 53 1013.0
20260905005024 92 228 1.0 1.0 0.00 0.00 0.00 51 1012.7
20260905004524 92 231 1.0 1.0 0.00 0.00 0.00 51 1012.5
20260905004024 93 233 1.0 1.0 0.00 0.00 0.00 50 1012.3
20260905003526 93 246 1.0 1.0 0.00 0.00 0.00 50 1012.2
20260905003022 94 246 1.0 1.0 0.00 0.00 0.00 50 1012.2
20260905002522 94 241 1.0 1.0 0.00 0.00 0.00 50 1012.2
20260905002042 95 258 0.0 1.0 0.00 0.00 0.00 49 1011.8
20260905001522 95 266 1.0 1.0 0.00 0.00 0.00 48 1011.5
20260905001021 95 0.0 0.0 0.00 0.00 0.00 47 1011.2
20260905000525 95 270 0.0 1.0 0.00 0.00 0.00 46 1011.0
20260905000047 96 271 0.0 1.0 0.00 0.00 0.00 46 1010.9
20260904235525 96 275 0.0 1.0 0.00 0.00 0.00 45 1010.6
20260904235042 96 272 0.0 1.0 0.00 0.00 0.00 44 1010.5
20260904234522 96 277 0.0 1.0 0.00 0.00 0.00 44 1010.3
20260904234022 97 274 0.0 1.0 0.00 0.00 0.00 43 1010.0
20260904233523 97 275 0.0 1.0 0.00 0.00 0.00 44 1010.2
20260904233041 97 200 0.0 1.0 0.00 0.00 0.00 43 1010.0
20260904232523 97 255 0.0 1.0 0.00 0.00 0.00 42 1009.8
20260904232022 97 267 0.0 2.0 0.00 0.00 0.00 42 1009.6
20260904231546 97 161 0.0 2.0 0.00 0.00 0.00 42 1009.7
20260904231023 97 152 0.0 2.0 0.00 0.00 0.00 42 1009.6
20260904230523 97 151 0.0 2.0 0.00 0.00 0.00 41 1009.3
20260904230023 97 155 1.0 2.0 0.00 0.00 0.00 41 1009.5
20260904225525 98 152 2.0 4.0 0.00 0.00 0.00 41 1009.4
20260904225024 98 162 1.0 4.0 0.00 0.00 0.00 41 1009.4
20260904224522 98 164 1.0 3.0 0.00 0.00 0.00 41 1009.4
20260904224024 98 144 1.0 2.0 0.00 0.00 0.00 41 1009.6
20260904223543 98 150 0.0 2.0 0.00 0.00 0.00 40 1009.3
20260904223044 99 136 1.0 4.0 0.00 0.00 0.00 40 1009.3
20260904222523 99 197 1.0 3.0 0.00 0.00 0.00 40 1009.2
20260904222043 99 189 0.0 3.0 0.00 0.00 0.00 40 1009.1
20260904221543 99 129 1.0 3.0 0.00 0.00 0.00 40 1009.2
20260904221045 99 206 1.0 2.0 0.00 0.00 0.00 39 1009.2
20260904220523 99 145 1.0 2.0 0.00 0.00 0.00 39 1009.0
20260904220024 99 170 1.0 3.0 0.00 0.00 0.00 39 1009.0
20260904215524 100 159 0.0 2.0 0.00 0.00 0.00 40 1009.3
20260904215023 100 0.0 0.0 0.00 0.00 0.00 37 1009.0
20260904214521 100 219 1.0 2.0 0.00 0.00 0.00 38 1009.2
20260904214022 101 143 1.0 3.0 0.00 0.00 0.00 37 1009.1
20260904213525 100 185 1.0 2.0 0.00 0.00 0.00 37 1009.1
20260904213025 100 287 1.0 3.0 0.00 0.00 0.00 36 1008.9
20260904212524 100 287 1.0 2.0 0.00 0.00 0.00 37 1009.1
20260904212024 100 291 1.0 3.0 0.00 0.00 0.00 37 1009.1
20260904211602 100 211 1.0 3.0 0.00 0.00 0.00 38 1009.4
20260904211022 100 139 1.0 3.0 0.00 0.00 0.00 37 1009.3
20260904210521 100 185 1.0 3.0 0.00 0.00 0.00 38 1009.4
20260904210043 99 156 1.0 4.0 0.00 0.00 0.00 37 1009.2
20260904205523 100 155 1.0 4.0 0.00 0.00 0.00 37 1009.3
20260904205102 100 159 1.0 3.0 0.00 0.00 0.00 37 1009.3
20260904204525 100 283 0.0 2.0 0.00 0.00 0.00 37 1009.3
20260904204026 100 180 1.0 3.0 0.00 0.00 0.00 38 1009.6
20260904203522 100 260 1.0 3.0 0.00 0.00 0.00 38 1009.7
20260904203023 100 290 1.0 3.0 0.00 0.00 0.00 38 1009.7
20260904202542 100 285 2.0 4.0 0.00 0.00 0.00 39 1009.8
20260904202023 99 279 1.0 3.0 0.00 0.00 0.00 39 1010.0
20260904201523 99 247 1.0 3.0 0.00 0.00 0.00 39 1009.9
20260904201023 99 285 1.0 3.0 0.00 0.00 0.00 39 1010.1
20260904200523 99 287 2.0 4.0 0.00 0.00 0.00 40 1010.4
20260904200021 99 287 1.0 3.0 0.00 0.00 0.00 40 1010.5
20260904195523 99 267 1.0 3.0 0.00 0.00 0.00 41 1010.8
20260904195026 98 183 1.0 3.0 0.00 0.00 0.00 41 1010.8
20260904194526 98 192 1.0 4.0 0.00 0.00 0.00 42 1011.0
20260904194024 98 265 1.0 3.0 0.00 0.00 0.00 41 1011.1
20260904193544 98 282 1.0 3.0 0.00 0.00 0.00 41 1011.1
20260904193025 98 276 0.0 2.0 0.00 0.00 0.00 41 1011.0
20260904192523 98 243 1.0 3.0 0.00 0.00 0.00 42 1011.4
20260904192024 98 143 0.0 2.0 0.00 0.00 0.00 43 1011.6
20260904191523 98 276 1.0 2.0 0.00 0.00 0.00 41 1011.2
20260904191020 98 276 1.0 3.0 0.00 0.00 0.00 41 1011.1
20260904190524 99 272 0.0 1.0 0.00 0.00 0.00 41 1011.1
20260904190027 99 214 1.0 4.0 0.00 0.00 0.00 41 1011.2
20260904185524 99 279 1.0 3.0 0.00 0.00 0.00 41 1011.1
20260904185024 99 256 0.0 3.0 0.00 0.00 0.00 41 1011.1
20260904184544 99 229 1.0 2.0 0.00 0.00 0.00 42 1011.4
20260904184023 99 276 1.0 3.0 0.00 0.00 0.00 41 1011.2
20260904183522 99 277 1.0 3.0 0.00 0.00 0.00 39 1010.8
20260904183021 99 274 1.0 3.0 0.00 0.00 0.00 40 1010.9
20260904182522 99 221 1.0 4.0 0.00 0.00 0.00 40 1010.9
20260904182021 99 281 1.0 3.0 0.00 0.00 0.00 39 1010.9
20260904181524 99 281 1.0 3.0 0.00 0.00 0.00 40 1011.0
20260904181027 99 281 1.0 3.0 0.00 0.00 0.00 42 1011.4
20260904180522 99 272 1.0 3.0 0.00 0.00 0.00 41 1011.3
20260904180021 99 280 1.0 3.0 0.00 0.00 0.00 42 1011.4
20260904175522 100 200 0.0 2.0 0.00 0.00 0.00 42 1011.5
20260904175042 101 152 1.0 3.0 0.00 0.00 0.00 40 1011.1
20260904174521 102 254 2.0 4.0 0.00 0.00 0.00 39 1010.8
20260904174024 102 217 1.0 5.0 0.00 0.00 0.00 41 1011.1
20260904173523 103 141 2.0 4.0 0.00 0.00 0.00 39 1011.0
20260904173022 103 217 2.0 6.0 0.00 0.00 0.00 38 1010.7
20260904172522 103 240 1.0 4.0 0.00 0.00 0.00 39 1011.0
20260904172022 103 165 1.0 4.0 0.00 0.00 0.00 38 1010.9
20260904171522 103 254 1.0 4.0 0.00 0.00 0.00 38 1010.8
20260904171043 102 274 1.0 3.0 0.00 0.00 0.00 39 1010.6
20260904170522 101 253 1.0 3.0 0.00 0.00 0.00 41 1011.2
20260904170023 101 236 1.0 4.0 0.00 0.00 0.00 42 1011.3
20260904165523 100 179 1.0 4.0 0.00 0.00 0.00 43 1011.4
20260904165023 100 268 1.0 4.0 0.00 0.00 0.00 43 1011.6
20260904164523 100 153 2.0 5.0 0.00 0.00 0.00 44 1011.9
20260904164043 100 159 1.0 3.0 0.00 0.00 0.00 44 1011.9
20260904163523 100 232 2.0 5.0 0.00 0.00 0.00 43 1011.8
20260904163023 99 283 1.0 5.0 0.00 0.00 0.00 44 1011.8
20260904162523 98 162 1.0 4.0 0.00 0.00 0.00 47 1012.5
20260904162024 97 265 1.0 3.0 0.00 0.00 0.00 48 1012.6
20260904161526 96 166 1.0 4.0 0.00 0.00 0.00 50 1013.1
20260904161024 96 142 2.0 4.0 0.00 0.00 0.00 51 1013.2
20260904160524 96 146 2.0 4.0 0.00 0.00 0.00 50 1013.2
20260904160021 95 167 2.0 5.0 0.00 0.00 0.00 50 1013.2
20260904155521 95 226 2.0 6.0 0.00 0.00 0.00 51 1013.3
20260904155022 95 169 2.0 7.0 0.00 0.00 0.00 50 1013.1
20260904154525 95 151 1.0 3.0 0.00 0.00 0.00 51 1013.2
20260904154027 94 147 1.0 5.0 0.00 0.00 0.00 52 1013.3
20260904153524 94 174 1.0 4.0 0.00 0.00 0.00 52 1013.4
20260904153025 93 164 2.0 4.0 0.00 0.00 0.00 53 1013.5
20260904152526 94 155 2.0 5.0 0.00 0.00 0.00 52 1013.4
20260904152021 94 166 2.0 6.0 0.00 0.00 0.00 52 1013.4
20260904151522 94 187 1.0 3.0 0.00 0.00 0.00 53 1013.5
20260904151023 93 175 2.0 4.0 0.00 0.00 0.00 53 1013.5
20260904150522 94 152 2.0 7.0 0.00 0.00 0.00 53 1013.4
20260904150022 93 208 1.0 5.0 0.00 0.00 0.00 53 1013.4
20260904145543 93 164 2.0 5.0 0.00 0.00 0.00 54 1013.6
20260904145022 92 258 1.0 3.0 0.00 0.00 0.00 55 1013.7
20260904144535 92 142 2.0 5.0 0.00 0.00 0.00 56 1013.8
20260904144042 91 205 1.0 3.0 0.00 0.00 0.00 56 1013.9
20260904143522 90 186 2.0 3.0 0.00 0.00 0.00 58 1014.6
20260904143021 89 166 1.0 4.0 0.00 0.00 0.00 59 1016.4
20260904142543 89 169 1.0 2.0 0.00 0.00 0.00 60 1017.9
20260904142022 88 157 2.0 3.0 0.00 0.00 0.00 62 1020.1
20260904141522 87 176 1.0 3.0 0.00 0.00 0.00 62 1023.5
20260904141025 87 195 2.0 3.0 0.00 0.00 0.00 63 1026.3
20260904140604 86 223 2.0 3.0 0.00 0.00 0.00 64 1028.9
20260904140026 86 183 2.0 3.0 0.00 0.00 0.00 64 1030.7
20260904135523 85 198 2.0 3.0 0.00 0.00 0.00 65 1033.5
20260904135023 85 183 2.0 4.0 0.00 0.00 0.00 66 1035.9
20260904134523 84 179 2.0 3.0 0.00 0.00 0.00 67 1042.3